Location: Stanford
(52.2833°N, 2.4333°W)
Time: 19:48:50
(UTC+00:00)

COSMOS 2406 - Pass Details

Date: 22 January 2021
Orbit: 841 x 866 km, 71.0° (Epoch: 27 February)

Event Time Altitude Azimuth Distance (km) Brightness Sun altitude
Rises 18:43:22 0° 329° (NNW) 3,461 6.7 -18.6°
Reaches altitude 10° 18:45:53 10° 334° (NNW) 2,520 5.9 -19.0°
Maximum altitude 18:51:37 58° 53° (NE) 1,005 3.3 -19.9°
Enters shadow 18:54:13 32° 119° (ESE) 1,455 4.0 -20.2°
